Location: Borojevi?i
(45.0486°N, 16.2297°E)
Time: 09:43:37
(UTC+00:00)

CENTAUR R/B - Pass Details

Date: 08 August 2020
Orbit: 754 x 1434 km, 63.5° (Epoch: 17 September)

Event Time Altitude Azimuth Distance (km) Brightness Sun altitude
Exits shadow 19:17:45 11° 101° (E) 2,582 4.2 -10.9°
Maximum altitude 19:17:45 11° 100° (E) 2,583 4.2 -10.9°
Drops below altitude 10° 19:19:08 10° 88° (E) 2,688 4.4 -11.1°
Sets 19:24:25 0° 54° (NE) 3,845 5.4 -11.9°
